[[{"header":{"parameterUnit":"m.s-1","parameterCategory":1,"la1":30.2991,"la2":30.254,"lo1":-89.0895,"lo2":-89.0444,"dy":0.0017,"dx":0.0017,"nx":28,"ny":28,"refTime":"2024-08-13T03:00:00:Z","depth":0,"parameterNumber":2,"parameterNumberName":"U-component_of_WINDS"},"data":[0,0,0,0,0,0,0,0,0,0,0,0,0,0,0,0,0,0,0,0,0,0,0,0,0,0,0,0,0,0,0,0,0,0,0,0,0,0,0,0,0,0,0,0,0,0,0,0,0,0,0,0,0,0,0,0,0,0,3.9113,3.9114,0,3.9239,3.924,3.9242,3.9202,3.92,3.9197,3.9194,3.9323,3.9329,3.9335,0,0,0,0,0,0,0,0,0,0,0,0,0,3.8837,3.8842,3.9113,3.9115,3.9116,3.9239,3.924,3.9242,3.9203,3.9199,3.9196,3.9193,3.9321,3.9328,3.9335,0,0,0,0,0,0,0,0,0,0,0,0,0,3.8959,3.8844,3.9113,3.9111,3.9112,3.9238,3.924,3.9242,3.9203,3.9199,3.9195,3.9192,3.9319,3.9327,3.9336,3.9471,0,0,3.9363,3.9367,0,0,0,0,0,0,0,0,3.8952,3.8969,3.911,3.9112,3.9113,3.9201,3.919,3.9319,3.9204,3.9169,3.9194,3.919,3.9286,3.9297,3.9329,3.9477,3.9482,3.9364,3.9369,3.9373,3.9376,0,0,0,0,0,0,0,3.8944,3.8963,3.9163,3.9112,3.9114,3.9104,3.9117,3.9214,3.9248,3.9172,3.9169,3.9185,3.9286,3.9321,3.9332,3.9484,3.9364,3.9372,3.9377,3.9381,3.9745,3.9749,0,0,0,0,0,0,3.8934,3.8957,3.9159,3.9166,3.9021,3.9112,3.9126,3.9177,3.9247,3.9254,3.9188,3.9182,3.9308,3.9322,3.9336,3.9496,3.9373,3.9381,3.9387,3.9741,3.9746,3.9751,0,0,0,0,0,0,3.8929,3.8953,3.9154,3.9061,3.9086,3.9121,3.9178,3.9181,3.9216,3.9259,3.9265,3.9218,3.9305,3.9324,3.9437,3.95,3.9385,3.9394,3.9736,3.9742,3.9748,3.9818,0,0,0,0,0,0,3.8921,3.8951,3.9003,3.9062,3.9091,3.9253,3.9182,3.9187,3.9232,3.9226,3.9289,3.9295,3.9303,3.9424,3.9446,3.951,3.94,3.973,3.9739,3.9746,3.981,3.9826,3.984,0,0,0,0,0,3.8911,3.9019,3.9006,3.9031,3.9157,3.9257,3.9273,3.928,3.9237,3.9289,3.9316,3.9293,3.949,3.9436,3.946,3.9528,3.9726,3.9736,3.9746,3.9804,3.9823,3.9839,0,0,0,0,0,0,3.8967,3.9026,3.9013,3.9143,3.9195,3.925,3.9316,3.9301,3.9366,3.9358,3.9364,3.9378,3.9494,3.9523,3.9461,3.966,3.9601,3.9617,3.9637,3.9656,3.967,3.966,3.9408,0,0,0,0,0,3.8994,3.907,3.9118,3.9228,3.9255,3.9281,3.9325,3.9326,3.938,3.9401,3.9437,3.949,3.9563,3.9611,3.9682,3.9815,3.9826,3.9873,3.9888,3.99,3.9912,3.9981,4.0002,3.9783,3.9783,3.9783,0,0,3.9051,3.9093,3.9141,3.924,3.9281,3.9358,3.93,3.9386,3.9443,3.9415,3.9522,3.955,3.961,3.9732,3.9788,3.976,3.9975,3.9912,3.9921,3.9927,3.9993,4.0014,4.0032,3.979,3.9788,3.9787,0,0,3.9195,3.9235,3.933,3.9371,3.9432,3.9448,3.9471,3.9528,3.9545,3.9653,3.9633,3.9701,3.9828,3.987,3.9908,4.0065,4.0045,4.0088,4.0164,4.0232,4.0249,4.0264,4.0317,4.0336,4.01,4.0101,4.0101,0,3.9258,3.9375,3.938,3.9467,3.951,3.9487,3.9582,3.9621,3.9703,3.9732,3.97,3.9856,3.9895,4.0025,4.0063,4.0096,4.012,4.008,4.0246,4.0261,4.0275,4.0326,4.0346,4.0105,4.0105,4.0104,4.0104,0,3.9448,3.9529,3.9598,3.9676,3.9727,3.9817,3.9835,3.9886,3.9882,3.9901,4.001,4.0055,4.0133,4.0164,4.0162,4.0294,4.0274,4.0244,4.0184,4.0301,4.0348,4.0368,4.0112,4.011,4.0109,4.0107,0,0,3.9631,3.9708,3.9733,3.9767,3.9832,3.9894,3.9982,4.0057,4.0099,4.0156,4.0229,4.0336,4.0307,4.035,4.0352,4.0412,4.0529,4.0374,4.0375,4.0398,4.0673,4.0694,4.0716,4.0517,4.0521,4.0524,4.0667,0,3.9777,3.9932,3.9939,4.0079,4.0152,4.0131,4.0207,4.0255,4.0275,4.0339,4.0361,4.0435,4.0394,4.0419,4.0477,4.0502,4.0584,4.0492,4.0582,4.0586,4.0566,4.0742,4.0765,4.0898,4.0686,4.069,4.0692,0,3.997,4.003,4.0178,4.0229,4.026,4.0329,4.0396,4.0459,4.0511,4.0521,4.0569,4.0561,4.065,4.0588,4.0709,4.0646,4.0684,4.0702,4.0707,4.0714,4.0644,4.0751,4.0941,4.096,4.0722,4.0719,4.0717,0,4.0084,4.0203,4.0306,4.0336,4.0399,4.0447,4.0476,4.0524,4.0568,4.0627,4.0655,4.0724,4.0762,4.0815,4.0825,4.078,4.0945,4.0886,4.0954,4.0954,4.0989,4.0986,4.1185,4.1017,4.1017,4.1016,4.1016,0,4.0246,4.0337,4.0358,4.0421,4.052,4.0527,4.0625,4.065,4.0693,4.0759,4.0746,4.0808,4.082,4.0884,4.0893,4.099,4.1008,4.1017,4.1018,4.1017,4.1016,4.104,4.103,4.1022,4.102,4.1019,4.1018,0,4.0391,4.0409,4.0519,4.0569,4.0584,4.0655,4.0697,4.0757,4.0774,4.0858,4.0878,4.0906,4.0981,4.0997,4.1087,4.1093,4.1207,4.12,4.1189,4.1188,4.1254,4.1247,4.1474,4.1503,4.1318,4.132,4.1322,0,4.0492,4.0561,4.0617,4.066,4.0691,4.0761,4.0805,4.0813,4.0859,4.0922,4.0974,4.1047,4.1106,4.1227,4.1254,4.1322,4.1315,4.139,4.1325,4.1321,4.1313,4.1307,4.1313,4.1402,4.1404,4.1406,4.1407,0,4.0668,4.0673,4.0737,4.0803,4.0856,4.0909,4.0959,4.0995,4.1009,4.1062,4.1138,4.1183,4.1273,4.1345,4.1413,4.1441,4.1426,4.1427,4.1446,4.1445,4.1434,4.1438,4.122,4.1422,4.142,4.1419,4.1418,4.1418,4.0793,4.0851,4.0899,4.097,4.1008,4.1055,4.1112,4.1136,4.12,4.1273,4.1274,4.1356,4.1404,4.1493,4.1525,4.1589,4.1565,4.1594,4.16,4.1607,4.1611,4.1426,4.1602,4.1601,4.1601,4.1601,4.16,0,4.0966,4.0995,4.106,4.113,4.1185,4.1165,4.1219,4.1266,4.1338,4.1385,4.1442,4.1528,4.1597,4.163,4.1698,4.1742,4.1737,4.1759,4.1755,4.1761,4.163,4.1605,4.1762,4.1762,4.1762,4.1762,4.1762,4.1762,4.1062,4.1159,4.1169,4.1285,4.1313,4.1393,4.1425,4.1467,4.1503,4.16,4.1657,4.1677,4.1717,4.1787,4.1849,4.1857,4.1881,4.1907,4.1911,4.1788,4.1771,4.1755,4.1732,4.1913,4.1913,4.2037,4.2038,4.2039]},{"header":{"parameterUnit":"m.s-1","parameterCategory":1,"la1":30.2991,"la2":30.254,"lo1":-89.0895,"lo2":-89.0444,"dy":0.0017,"dx":0.0017,"nx":28,"ny":28,"refTime":"2024-08-13T03:00:00:Z","depth":0,"parameterNumber":3,"parameterNumberName":"V-component_of_WINDS"},"data":[0,0,0,0,0,0,0,0,0,0,0,0,0,0,0,0,0,0,0,0,0,0,0,0,0,0,0,0,0,0,0,0,0,0,0,0,0,0,0,0,0,0,0,0,0,0,0,0,0,0,0,0,0,0,0,0,0,0,2.2141,2.2142,0,2.224,2.2241,2.2242,2.2238,2.2236,2.2235,2.2234,2.2333,2.2337,2.2341,0,0,0,0,0,0,0,0,0,0,0,0,0,2.1945,2.1949,2.2141,2.2142,2.2144,2.224,2.2241,2.2243,2.2238,2.2236,2.2235,2.2233,2.2332,2.2336,2.2341,0,0,0,0,0,0,0,0,0,0,0,0,0,2.2036,2.195,2.2141,2.2153,2.2155,2.224,2.2241,2.2243,2.2238,2.2236,2.2234,2.2232,2.233,2.2336,2.2342,2.242,0,0,2.236,2.2362,0,0,0,0,0,0,0,0,2.2031,2.2043,2.215,2.2152,2.2155,2.2224,2.2209,2.2302,2.2239,2.2207,2.2234,2.2231,2.2298,2.2307,2.233,2.2425,2.2429,2.236,2.2364,2.2366,2.2368,0,0,0,0,0,0,0,2.2024,2.2039,2.218,2.2151,2.2154,2.2152,2.2163,2.2226,2.2263,2.2209,2.2209,2.2221,2.2299,2.2324,2.2332,2.2431,2.236,2.2365,2.2369,2.2371,2.2593,2.2595,0,0,0,0,0,0,2.2016,2.2033,2.2177,2.2183,2.2086,2.2158,2.2169,2.2204,2.2262,2.2269,2.2223,2.222,2.2315,2.2325,2.2336,2.2431,2.2366,2.2372,2.2375,2.2591,2.2594,2.2596,0,0,0,0,0,0,2.2012,2.2029,2.2173,2.2108,2.2127,2.2163,2.2202,2.2207,2.2232,2.2273,2.2279,2.2242,2.2314,2.2327,2.2399,2.2434,2.2375,2.238,2.2588,2.2592,2.2595,2.2622,0,0,0,0,0,0,2.2006,2.2027,2.2058,2.2109,2.213,2.2236,2.2204,2.2211,2.2243,2.2241,2.2292,2.2298,2.2313,2.239,2.2405,2.2441,2.2385,2.2585,2.259,2.2594,2.2618,2.2626,2.2632,0,0,0,0,0,2.1999,2.2062,2.206,2.2077,2.217,2.2238,2.225,2.2266,2.2245,2.2276,2.2302,2.2297,2.2428,2.2398,2.2414,2.2453,2.2583,2.2588,2.2593,2.2614,2.2624,2.2632,0,0,0,0,0,0,2.2014,2.2069,2.2067,2.2148,2.2189,2.2237,2.2277,2.2276,2.2322,2.2318,2.2336,2.2348,2.2419,2.2443,2.2408,2.2531,2.2502,2.2511,2.2513,2.2522,2.2529,2.2522,2.2389,0,0,0,0,0,2.2026,2.2078,2.2123,2.219,2.221,2.224,2.227,2.2279,2.2321,2.2338,2.2369,2.2409,2.2459,2.2492,2.254,2.2621,2.2631,2.2655,2.2662,2.2668,2.2676,2.2719,2.2729,2.2613,2.2613,2.2613,0,0,2.2053,2.209,2.2121,2.2194,2.2226,2.2278,2.2254,2.2311,2.2349,2.2346,2.2416,2.244,2.2486,2.2562,2.2597,2.2584,2.271,2.2675,2.2679,2.2684,2.2725,2.2736,2.2746,2.2617,2.2616,2.2616,0,0,2.2129,2.2162,2.2221,2.2253,2.2302,2.2322,2.2336,2.2384,2.24,2.247,2.2469,2.2514,2.26,2.2633,2.2661,2.2747,2.2743,2.2762,2.28,2.2841,2.285,2.2858,2.2888,2.2899,2.2769,2.2769,2.2769,0,2.2156,2.2235,2.2251,2.2308,2.2339,2.2339,2.2399,2.2429,2.2491,2.2512,2.2497,2.2604,2.2635,2.2718,2.2739,2.2762,2.2778,2.2756,2.2848,2.2856,2.2864,2.2893,2.2904,2.2771,2.2771,2.277,2.277,0,2.2265,2.232,2.2361,2.2421,2.2458,2.2515,2.2539,2.2574,2.2579,2.2599,2.267,2.2707,2.2762,2.2782,2.2788,2.2866,2.2856,2.2844,2.2816,2.2877,2.2904,2.2915,2.2774,2.2773,2.2772,2.2772,0,0,2.2353,2.2421,2.2436,2.2463,2.2516,2.2558,2.2615,2.2669,2.2698,2.274,2.2788,2.286,2.2849,2.288,2.2889,2.2926,2.299,2.2909,2.2911,2.2923,2.3077,2.3085,2.3098,2.2988,2.299,2.2992,2.3073,0,2.2434,2.2535,2.2551,2.264,2.269,2.269,2.2739,2.2777,2.2797,2.2841,2.2863,2.2914,2.2896,2.2914,2.2951,2.2975,2.3021,2.2969,2.3031,2.3033,2.302,2.3112,2.3122,2.3196,2.3083,2.3085,2.3087,0,2.2541,2.2587,2.2681,2.2726,2.2748,2.2792,2.2842,2.2885,2.2927,2.2939,2.2973,2.2978,2.3035,2.3004,2.3083,2.3047,2.3073,2.3089,2.3092,2.3098,2.3064,2.312,2.322,2.3231,2.3104,2.3102,2.3101,0,2.2595,2.268,2.2747,2.2769,2.2824,2.2855,2.2879,2.2919,2.295,2.2994,2.3014,2.3064,2.3091,2.3128,2.3146,2.3122,2.3223,2.3194,2.3233,2.3233,2.3255,2.3253,2.336,2.3272,2.3272,2.3272,2.3272,0,2.2683,2.274,2.2771,2.2813,2.2876,2.2893,2.2955,2.2978,2.3013,2.3058,2.3061,2.3102,2.3123,2.3167,2.3181,2.3243,2.3256,2.3266,2.3269,2.3266,2.3264,2.3283,2.3278,2.3275,2.3274,2.3274,2.3273,0,2.2754,2.2778,2.285,2.2896,2.2909,2.2954,2.2992,2.3031,2.3051,2.3107,2.3121,2.3151,2.3203,2.3224,2.3288,2.3297,2.3369,2.3368,2.3355,2.3356,2.3394,2.339,2.3516,2.3533,2.3435,2.3435,2.3436,0,2.2809,2.2853,2.2903,2.2934,2.2959,2.3008,2.3039,2.3057,2.309,2.314,2.3173,2.3225,2.3268,2.3351,2.3378,2.3426,2.3426,2.3467,2.3433,2.3428,2.3426,2.3423,2.3427,2.3473,2.3474,2.3475,2.3476,0,2.2903,2.2912,2.2958,2.3008,2.3046,2.3086,2.3125,2.3149,2.3173,2.3209,2.3263,2.3296,2.3361,2.3412,2.3462,2.3485,2.3484,2.3486,2.3497,2.3494,2.3485,2.349,2.3371,2.3483,2.3482,2.3482,2.3481,2.3481,2.2967,2.3005,2.3047,2.3098,2.3129,2.3165,2.3203,2.3227,2.3273,2.3327,2.3335,2.3392,2.3431,2.3498,2.3523,2.3567,2.3556,2.3573,2.3578,2.3581,2.3584,2.3478,2.3576,2.3576,2.3576,2.3576,2.3576,0,2.306,2.3086,2.3133,2.3187,2.3227,2.3223,2.3265,2.3298,2.3349,2.3386,2.3428,2.3488,2.3538,2.3568,2.3618,2.3647,2.3648,2.366,2.3657,2.3663,2.3591,2.3576,2.3658,2.3658,2.3658,2.3658,2.3658,2.3658,2.3113,2.3178,2.3192,2.3272,2.3297,2.3354,2.3378,2.3411,2.344,2.3508,2.355,2.3569,2.3603,2.3655,2.37,2.3707,2.3725,2.3737,2.3744,2.3676,2.3668,2.366,2.3645,2.3741,2.3741,2.3812,2.3813,2.3813]}]]